CW7769 Weather Reports


time (UTC)temp
C
wind
direction
speed
KPH
gust
KPH
rain 1hr
cm
rain 24hr
cm
rain mn
cm
humidity
%
barometer
mb
20260503005201 13 265 0.0 0.0 0.00 0.00 0.00 60 1015.4
20260503004148 13 265 0.0 0.0 0.00 0.00 0.00 59 1015.4
20260503003136 13 265 0.0 0.0 0.00 0.00 0.00 59 1015.3
20260503002143 13 265 0.0 0.0 0.00 0.00 0.00 59 1015.4
20260503001145 13 265 0.0 0.0 0.00 0.00 0.00 58 1015.4
20260503000155 13 265 0.0 0.0 0.00 0.00 0.00 57 1015.5
20260502235127 14 265 0.0 0.0 0.00 0.00 0.00 57 1015.6
20260502234143 14 265 0.0 0.0 0.00 0.00 0.00 56 1015.6
20260502233133 14 265 0.0 0.0 0.00 0.00 0.00 57 1015.7
20260502232100 14 265 0.0 0.0 0.00 0.00 0.00 56 1015.7
20260502231110 15 265 0.0 0.0 0.00 0.00 0.00 56 1015.7
20260502230116 15 265 0.0 0.0 0.00 0.00 0.00 56 1015.8
20260502225111 15 265 0.0 0.0 0.00 0.00 0.00 55 1015.8
20260502224136 15 265 0.0 0.0 0.00 0.00 0.00 55 1015.8
20260502223131 15 265 0.0 0.0 0.00 0.00 0.00 54 1015.8
20260502222109 15 265 0.0 0.0 0.00 0.00 0.00 54 1015.7
20260502212610 17 265 0.0 0.0 0.00 0.00 0.00 51 1015.9
20260502211624 17 265 0.0 0.0 0.00 0.00 0.00 51 1015.9
20260502210644 17 196 0.0 3.2 0.00 0.00 0.00 51 1015.9
20260502204542 18 132 0.0 0.0 0.00 0.00 0.00 48 1015.8
20260502203508 18 132 0.0 0.0 0.00 0.00 0.00 47 1015.9
20260502202508 18 132 0.0 0.0 0.00 0.00 0.00 47 1015.9
20260502201511 18 132 0.0 0.0 0.00 0.00 0.00 46 1015.8
20260502200500 19 132 0.0 0.0 0.00 0.00 0.00 46 1015.8
20260502195524 19 132 0.0 0.0 0.00 0.00 0.00 45 1015.8
20260502194537 20 132 0.0 0.0 0.00 0.00 0.00 44 1015.8
20260502193558 20 132 0.0 0.0 0.00 0.00 0.00 43 1015.8
20260502191437 20 132 0.0 0.0 0.00 0.00 0.00 43 1015.7
20260502185306 21 132 0.0 0.0 0.00 0.00 0.00 39 1015.6
20260502184236 21 132 0.0 0.0 0.00 0.00 0.00 39 1015.5
20260502181220 23 132 0.0 0.0 0.00 0.00 0.00 33 1015.6
20260502180152 24 132 0.0 0.0 0.00 0.00 0.00 31 1015.5
20260502170149 26 140 0.0 0.0 0.00 0.00 0.00 26 1015.7
20260502164110 26 184 0.0 0.0 0.00 0.00 0.00 24 1015.8
20260502162017 26 89 0.0 1.6 0.00 0.00 0.00 24 1016.0
20260502161035 26 152 0.0 0.0 0.00 0.00 0.00 22 1016.2
20260502151720 26 153 1.6 0.0 0.00 0.00 0.00 22 1016.7
20260502150708 27 166 1.6 8.0 0.00 0.00 0.00 24 1016.8
20260502123030 26 74 1.6 9.7 0.00 0.00 0.00 26 1019.1
20260502122010 25 164 0.0 8.0 0.00 0.00 0.00 31 1019.2
20260502120943 26 191 0.0 4.8 0.00 0.00 0.00 26 1019.4
20260502114934 25 90 1.6 3.2 0.00 0.00 0.00 30 1019.7
20260502111555 24 157 0.0 1.6 0.00 0.00 0.00 30 1020.3
20260502110542 25 105 0.0 0.0 0.00 0.00 0.00 31 1020.3
20260502105604 24 82 0.0 3.2 0.00 0.00 0.00 30 1020.4
20260502104537 24 213 1.6 8.0 0.00 0.00 0.00 29 1020.7
20260502103559 23 167 0.0 4.8 0.00 0.00 0.00 32 1020.9
20260502102547 23 180 0.0 0.0 0.00 0.00 0.00 31 1021.0
20260502101538 22 180 0.0 1.6 0.00 0.00 0.00 32 1021.1
20260502100548 23 189 0.0 1.6 0.00 0.00 0.00 31 1021.2
20260502090645 20 120 0.0 6.4 0.00 0.00 0.00 33 1021.8
20260502071506 15 71 0.0 0.0 0.00 0.00 0.00 44 1022.6
20260502064220 13 71 0.0 0.0 0.00 0.00 0.00 49 1022.6
20260502062055 12 71 0.0 0.0 0.00 0.00 0.00 56 1022.6
20260502061042 11 71 0.0 0.0 0.00 0.00 0.00 60 1022.5
20260502054917 8 71 0.0 0.0 0.00 0.00 0.00 66 1022.5
20260502053930 8 71 0.0 0.0 0.00 0.00 0.00 66 1022.5
20260502052943 7 71 0.0 0.0 0.00 0.00 0.00 66 1022.5
20260502051935 7 71 0.0 0.0 0.00 0.00 0.00 66 1022.4
20260502050944 7 71 0.0 0.0 0.00 0.00 0.00 65 1022.3
20260502044816 6 71 0.0 0.0 0.00 0.00 0.00 64 1022.3
20260502043744 6 71 0.0 0.0 0.00 0.00 0.00 63 1022.2
20260502042754 6 71 0.0 0.0 0.00 0.00 0.00 63 1022.2
20260502041755 6 71 0.0 0.0 0.00 0.00 0.00 62 1022.2
20260502040729 6 71 0.0 0.0 0.00 0.00 0.00 62 1022.3
20260502035708 7 71 0.0 0.0 0.00 0.00 0.00 61 1022.2
20260502034647 7 71 0.0 0.0 0.00 0.00 0.00 61 1022.2
20260502033659 7 71 0.0 0.0 0.00 0.00 0.00 61 1022.3
20260502032637 7 71 0.0 0.0 0.00 0.00 0.00 60 1022.3
20260502031633 7 71 0.0 0.0 0.00 0.00 0.00 61 1022.2
20260502030652 7 71 0.0 0.0 0.00 0.00 0.00 60 1022.3
20260502024454 7 71 0.0 0.0 0.00 0.00 0.00 59 1022.2
20260502023433 8 71 0.0 0.0 0.00 0.00 0.00 58 1022.2
20260502021319 8 71 0.0 0.0 0.00 0.00 0.00 57 1022.2
20260502014041 8 71 0.0 0.0 0.00 0.00 0.00 56 1022.4
20260502013032 8 71 0.0 0.0 0.00 0.00 0.00 56 1022.4
20260502012010 9 71 0.0 0.0 0.00 0.00 0.00 55 1022.5
20260502010956 9 71 0.0 0.0 0.00 0.00 0.00 55 1022.6